{"data":{"norad_id":67377,"epoch":"2026-05-24T23:13:22.768032Z","epoch_age_seconds":81277,"freshness":"FRESH","line1":"1 67377U 26004Q   26144.96762463  .00000578  00000+0  71796-4 0  9995","line2":"2 67377  97.8032 143.9952 0002162 184.4656 175.6541 14.86245126 19838","mean_motion":14.86245126,"eccentricity":0.0002162,"inclination_deg":97.8032,"raan_deg":143.9952,"arg_perigee_deg":184.4656,"mean_anomaly_deg":175.6541,"bstar":7.1796e-5,"rev_number":1983,"period_min":96.888459030681,"perigee_km":608.16960002181,"apogee_km":611.19113225093,"semimajor_km":6987.8173661364,"source":"CELESTRAK","updated_at":"2026-05-25T13:38:06.930524Z"}}